Regional Weather Roundup
Issued by NWS

Home | Current Version | Previous Version | Graphics & Text | Print | Product List | Glossary Off
Versions: 1 2 3 4 5 6 7 8 9 10 11 12 13 14 15 16 17 18 19 20 21 22 23 24 25 26 27 28 29 30 31 32 33 34 35 36 37 38 39 40 41 42 43 44 45 46 47 48 49 50

000
ASUS45 KSLC 300910
RWRUT

UTAH REGIONAL WEATHER ROUNDUP
NATIONAL WEATHER SERVICE SALT LAKE CITY UT
300 AM MDT WED JUL 30 2014

UTZ001>011-023>025-301000-

NORTHERN UTAH

CITY           SKY/WX    TMP DP  RH WIND       PRES   REMARKS
HILL AFB       CLOUDY    65  58  75 SE15G22   30.19R
LOGAN          LGT RAIN  63  61  93 SW3       30.21F
OGDEN          CLOUDY    65  62  90 W3        30.17S
PROVO AIRPORT  CLOUDY    64  57  77 S3        30.21S
SALT LAKE CITY LGT RAIN  66  62  87 SE5       30.17R
VERNAL         CLOUDY    63  58  83 CALM      30.23S
WENDOVER       PTCLDY    70  52  52 N3        30.18F
HEBER CITY     RAIN      59  57  94 CALM      30.26S
WEST JORDAN    CLOUDY    66  66 100 N3        30.20R

$$

UTZ012>022-026-027-301000-

SOUTHERN UTAH

CITY           SKY/WX    TMP DP  RH WIND       PRES   REMARKS
BRYCE CANYON   CLOUDY    53  51  93 CALM      30.37S
CEDAR CITY     PTCLDY    62  58  86 SE5       30.24S
MILFORD        CLEAR     62  58  86 VRB3      30.21S
MOAB/CYNLANDS  CLEAR     63  59  87 SE7       30.16R
PRICE          CLOUDY    63  55  75 N6        30.25F
ST GEORGE      CLOUDY    81  52  36 SE3       30.02F
KANAB            N/A     68  54  60 NE6       30.21S

$$

REGIONAL REPORTS     COLORADO/ARIZONA

CITY           SKY/WX    TMP DP  RH WIND       PRES   REMARKS
CRAIG, CO      CLOUDY    54  32  43 W3        30.27S
GRAND JUNCTION MOCLDY    61  58  90 CALM      30.19S
RIFLE          CLOUDY    60  57  89 CALM      30.24F
MONTROSE       PTCLDY    60  56  86 S3        30.26F
CORTEZ         CLOUDY    62  56  80 E3        30.23F
PAGE, AZ       CLEAR     77  51  40 CALM      30.12S
GRAND CANYON   CLEAR     54  49  83 CALM      30.31S
KINGMAN        NOT AVBL
FLAGSTAFF      CLEAR     62  47  57 CALM      30.34F

$$

REGIONAL REPORTS    NEVADA/IDAHO/WYOMING

CITY           SKY/WX    TMP DP  RH WIND       PRES   REMARKS
LAS VEGAS, NV  PTCLDY    88  55  32 S8        29.91S
ELY            CLEAR     51  51 100 S6        30.32R
ELKO           MOCLDY    62  49  62 SW5       30.24F
POCATELLO, ID  CLEAR     58  56  93 S6        30.22R
BURLEY         MOCLDY    60  53  77 W5        30.18F
EVANSTON, WY   LGT RAIN  55  52  89 E13       30.35R
ROCK SPRINGS   CLOUDY    56  52  86 NE9       30.34F

$$


USA.gov is the U.S. government's official web portal to all federal, state and local government web resources and services.